Home > Time Zones > World Clock > Weather > India > Tonk > Past weeks

Flag for India Weather past 2 weeks in Tonk, Rajasthan, India

Now
88 °F

Scattered clouds.


Feels Like: 100 °F
Forecast: 81 / 94 °F
Wind: 8 mph from Northwest

Location: Jaipur / Sanganer

Current Time: Aug 4, 2015 at 8:19:52 PM

Latest Report: Aug 4, 2015 at 7:00 PM


Visibility: 2 mi

Pressure: 29.56 "Hg

Humidity: 70%

Dew point: 77 °F

Location of TonkLocation

Historic Weather in Tonk — Graph

°F

Tonk temperature yesterday

Maximum temperature yesterday: 86 °F (at 5:00 PM)
Minimum temperature yesterday: 77 °F (at 6:00 AM)
Average temperature yesterday: 81 °F

Past Weeks' High & Low Weather Summary

 TemperatureHumidityPressure
High95 °F (Jul 22, 4:00 PM)100% (Jul 21, 2:00 AM)29.77 "Hg (Jul 21, 2:00 AM)
Low73 °F (Jul 27, 2:00 AM)53% (Jul 22, 4:00 PM)29.42 "Hg (Jul 26, 4:00 PM)
Average82 °F84%29.61 "Hg
* Reported Jul 20 6:30 PM — Aug 4 7:00 PM, Tonk, Weather by CustomWeather, © 2015

Note: Actual official high and low records may vary slightly from our data, if they occured in-between our weather recording intervals... More about our weather records

Advertising

Tonk weather history for previous 24 hours

 ConditionsComfort  
Time TempWeatherWind HumidityBarometerVisibility
7:00 PM
Tue, Aug 4
88 °FScattered clouds.8 mph70%29.56 "Hg2 mi
6:00 PM90 °FScattered clouds.9 mph71%29.56 "Hg2 mi
5:00 PM90 °FScattered clouds.10 mph71%29.56 "Hg2 mi
4:00 PM91 °FScattered clouds.8 mph67%29.59 "Hg2 mi
3:00 PM90 °FScattered clouds.7 mph71%29.59 "Hg2 mi
2:00 PM90 °FScattered clouds.6 mph67%29.62 "Hg2 mi
1:00 PM88 °FScattered clouds.6 mph75%29.65 "Hg2 mi
12:00 PM86 °FScattered clouds.7 mph75%29.68 "Hg2 mi
11:00 AM84 °FBroken clouds.7 mph79%29.68 "Hg2 mi
10:00 AM82 °FBroken clouds.7 mph79%29.68 "Hg2 mi
8:00 AM79 °FBroken clouds.8 mph89%29.68 "Hg1 mi
7:00 AM79 °FScattered clouds.6 mph89%29.68 "Hg1 mi
6:00 AM79 °FPassing clouds.7 mph89%29.65 "Hg1 mi
5:00 AM81 °FPassing clouds.6 mph84%29.65 "Hg1 mi
4:00 AM81 °FPassing clouds.6 mph84%29.65 "Hg1 mi
1:00 AM81 °FPassing clouds.3 mph84%29.68 "Hg2 mi
12:00 AM81 °FPassing clouds.6 mph89%29.68 "Hg2 mi
10:00 PM
Mon, Aug 3
82 °FPassing clouds.3 mph84%29.71 "Hg2 mi
9:00 PM82 °FPassing clouds.5 mph84%29.71 "Hg2 mi
8:00 PM82 °FPassing clouds.5 mph84%29.68 "Hg2 mi
Weather by CustomWeather, © 2015

See weather overviewHow to use our weather pages